Flag for Germany Weather past 2 weeks in Buxtehude, Lower Saxony, Germany

Now
72 °F

Sunny.


Feels Like: 77 °F
Forecast: 58 / 80 °F
Wind: 9 mph from Southwest

Location: Hamburg-Finkenwerder

Current Time: Aug 29, 2015 at 4:41:07 PM

Latest Report: Aug 29, 2015 at 4:20 PM


Visibility: 10 mi

Pressure: 30.18 "Hg

Humidity: 47%

Dew point: 50 °F

Location of BuxtehudeLocation

Historic Weather in Buxtehude — Graph

°F

Buxtehude temperature yesterday

Maximum temperature yesterday: 68 °F (at 3:50 PM)
Minimum temperature yesterday: 57 °F (at 5:50 AM)
Average temperature yesterday: 62 °F

Past Weeks' High & Low Weather Summary

 TemperatureHumidityPressure
High84 °F (Aug 14, 3:20 PM)100% (Aug 17, 5:50 AM)30.27 "Hg (Aug 17, 5:50 AM)
Low54 °F (Aug 20, 6:20 AM)36% (Aug 21, 4:50 PM)29.56 "Hg (Aug 24, 7:50 PM)
Average66 °F80%29.95 "Hg
* Reported Aug 14 3:20 PM — Aug 29 3:20 PM, Buxtehude, Weather by CustomWeather, © 2015

Note: Actual official high and low records may vary slightly from our data, if they occured in-between our weather recording intervals... More about our weather records

Advertising

Buxtehude weather history for previous 24 hours

 ConditionsComfort  
Time TempWeatherWind HumidityBarometerVisibility
3:20 PM
Sat, Aug 29
72 °FScattered clouds.7 mph50%30.18 "HgN/A
2:50 PM72 °FScattered clouds.5 mph50%30.21 "HgN/A
2:20 PM72 °FScattered clouds.8 mph50%30.21 "HgN/A
1:50 PM72 °FScattered clouds.6 mph53%30.21 "HgN/A
1:20 PM70 °FPassing clouds.7 mph53%30.21 "HgN/A
12:50 PM70 °FPassing clouds.8 mph57%30.21 "HgN/A
11:50 AM68 °FPassing clouds.7 mph64%30.24 "HgN/A
11:20 AM66 °FPassing clouds.6 mph68%30.24 "HgN/A
10:50 AM64 °FPassing clouds.5 mph83%30.24 "HgN/A
9:50 AM61 °FClear.3 mph94%30.24 "Hg5 mi
9:20 AM59 °FClear.3 mph100%30.21 "Hg5 mi
8:50 AM57 °FClear.2 mph100%30.21 "Hg4 mi
7:50 PM
Fri, Aug 28
63 °FScattered clouds.7 mph83%30.07 "HgN/A
7:20 PM66 °FPassing clouds.8 mph68%30.07 "HgN/A
6:50 PM66 °FPassing clouds.10 mph68%30.07 "HgN/A
6:20 PM66 °FPassing clouds.12 mph68%30.04 "HgN/A
5:50 PM66 °FPassing clouds.12 mph68%30.04 "HgN/A
5:20 PM66 °FScattered clouds.10 mph68%30.04 "HgN/A
4:50 PM66 °FScattered clouds.10 mph68%30.04 "HgN/A
4:20 PM66 °FPassing clouds.13 mph68%30.04 "HgN/A
Weather by CustomWeather, © 2015

See weather overviewHow to use our weather pages